User: anonymous   Login
Location: Presov
(49.0000°N, 21.2500°E)
Time: 07:31:07
(UTC+01:00)
Language:

AO-92 - Orbit

View from above orbital plane
View from above orbital plane
View from above satellite
View from above satellite

Ground track
Ground track

The orbit data is extracted from the following two-line orbital elements,

1 43137U 18004AC  23336.78060055  .00162305  00000-0  12558-2 0  9999
2 43137  97.3080  59.9152 0003452 239.5384 120.5538 15.71380376328509
Epoch (UTC): 02 December 2023 18:44:03
Eccentricity: 0.0003452
inclination: 97.3080°
perigee height: 352 km
apogee height: 357 km
right ascension of ascending node: 59.9152°
argument of perigee: 239.5384°
revolutions per day: 15.71380376
mean anomaly at epoch: 120.5538°
orbit number at epoch: 32850

The dashed part of the orbit path shows where the satellite is in the earth's shadow,  

DLR